Location: Arrodets-la-Barthe
(43.0306°N, 0.2829°E)
Time: 18:34:53
(UTC+00:00)

Feng Yun 1-1 Rocket - Pass Details

Date: 24 October 2021
Orbit: 830 x 933 km, 99.2° (Epoch: 01 December)

Event Time Altitude Azimuth Distance (km) Brightness Sun altitude
Rises 18:21:28 0° 157° (SSE) 3,415 7.1 -15.2°
Reaches altitude 10° 18:23:48 10° 155° (SSE) 2,497 6.4 -15.6°
Maximum altitude 18:29:20 71° 72° (ENE) 931 4.2 -16.6°
Drops below altitude 10° 18:35:03 10° 350° (N) 2,583 6.8 -17.6°
Sets 18:37:30 0° 348° (NNW) 3,542 7.6 -18.1°
